Time,TemperatureF,DewpointF,PressureIn,WindDirection,WindDirectionDegrees,WindSpeedMPH,WindSpeedGustMPH,Humidity,HourlyPrecipIn,Conditions,Clouds,dailyrainin,SoftwareType,DateUTC
2013-05-16 00:03:00,31.0,-99.9,29.55,North,-999,-999.0,-999.0,-999,-99.99,,,-99.99,,2013-05-16 08:03:00,
2013-05-16 00:24:00,29.0,-99.9,29.55,North,-999,-999.0,-999.0,-999,-99.99,,,-99.99,,2013-05-16 08:24:00,
2013-05-16 00:35:00,29.0,-99.9,29.55,North,-999,-999.0,-999.0,-999,-99.99,,,-99.99,,2013-05-16 08:35:00,
2013-05-16 00:45:00,29.0,-99.9,29.55,North,-999,-999.0,-999.0,-999,-99.99,,,-99.99,,2013-05-16 08:45:00,
2013-05-16 00:55:00,27.0,-99.9,29.56,North,-999,-999.0,-999.0,-999,-99.99,,,-99.99,,2013-05-16 08:55:00,
2013-05-16 01:04:00,27.0,-99.9,29.56,North,-999,-999.0,-999.0,-999,-99.99,,,-99.99,,2013-05-16 09:04:00,
2013-05-16 01:14:00,26.0,-99.9,29.56,North,-999,-999.0,-999.0,-999,-99.99,,,-99.99,,2013-05-16 09:14:00,
2013-05-16 01:24:00,26.0,-99.9,29.56,North,-999,-999.0,-999.0,-999,-99.99,,,-99.99,,2013-05-16 09:24:00,
2013-05-16 01:35:00,26.0,-99.9,29.56,North,-999,-999.0,-999.0,-999,-99.99,,,-99.99,,2013-05-16 09:35:00,
2013-05-16 01:45:00,26.0,-99.9,29.56,North,-999,-999.0,-999.0,-999,-99.99,,,-99.99,,2013-05-16 09:45:00,
2013-05-16 01:55:00,25.0,-99.9,29.56,North,-999,-999.0,-999.0,-999,-99.99,,,-99.99,,2013-05-16 09:55:00,
2013-05-16 02:05:00,25.0,-99.9,29.56,North,-999,-999.0,-999.0,-999,-99.99,,,-99.99,,2013-05-16 10:05:00,
2013-05-16 02:15:00,25.0,-99.9,29.56,North,-999,-999.0,-999.0,-999,-99.99,,,-99.99,,2013-05-16 10:15:00,
2013-05-16 02:24:00,25.0,-99.9,29.56,North,-999,-999.0,-999.0,-999,-99.99,,,-99.99,,2013-05-16 10:24:00,
2013-05-16 02:36:00,25.0,-99.9,29.56,North,-999,-999.0,-999.0,-999,-99.99,,,-99.99,,2013-05-16 10:36:00,
2013-05-16 02:45:00,25.0,-99.9,29.56,North,-999,-999.0,-999.0,-999,-99.99,,,-99.99,,2013-05-16 10:45:00,
2013-05-16 02:57:00,24.0,-99.9,29.56,North,-999,-999.0,-999.0,-999,-99.99,,,-99.99,,2013-05-16 10:57:00,
2013-05-16 03:05:00,24.0,-99.9,29.56,North,-999,-999.0,-999.0,-999,-99.99,,,-99.99,,2013-05-16 11:05:00,
2013-05-16 03:25:00,23.0,-99.9,29.56,North,-999,-999.0,-999.0,-999,-99.99,,,-99.99,,2013-05-16 11:25:00,
2013-05-16 03:35:00,23.0,-99.9,29.57,North,-999,-999.0,-999.0,-999,-99.99,,,-99.99,,2013-05-16 11:35:00,
2013-05-16 03:46:00,23.0,-99.9,29.57,North,-999,-999.0,-999.0,-999,-99.99,,,-99.99,,2013-05-16 11:46:00,
2013-05-16 03:57:00,23.0,-99.9,29.57,North,-999,-999.0,-999.0,-999,-99.99,,,-99.99,,2013-05-16 11:57:00,
2013-05-16 04:06:00,23.0,-99.9,29.57,North,-999,-999.0,-999.0,-999,-99.99,,,-99.99,,2013-05-16 12:06:00,
2013-05-16 04:23:00,21.0,-99.9,29.57,North,-999,-999.0,-999.0,-999,-99.99,,,-99.99,,2013-05-16 12:23:00,
2013-05-16 04:35:00,21.0,-99.9,29.57,North,-999,-999.0,-999.0,-999,-99.99,,,-99.99,,2013-05-16 12:35:00,
2013-05-16 04:45:00,21.0,-99.9,29.57,North,-999,-999.0,-999.0,-999,-99.99,,,-99.99,,2013-05-16 12:45:00,
2013-05-16 04:53:00,21.0,-99.9,29.57,North,-999,-999.0,-999.0,-999,-99.99,,,-99.99,,2013-05-16 12:53:00,
2013-05-16 05:04:00,21.0,-99.9,29.57,North,-999,-999.0,-999.0,-999,-99.99,,,-99.99,,2013-05-16 13:04:00,
2013-05-16 05:35:00,20.0,-99.9,29.57,North,-999,-999.0,-999.0,-999,-99.99,,,-99.99,,2013-05-16 13:35:00,
2013-05-16 05:44:00,20.0,-99.9,29.57,North,-999,-999.0,-999.0,-999,-99.99,,,-99.99,,2013-05-16 13:44:00,
2013-05-16 05:55:00,20.0,-99.9,29.57,North,-999,-999.0,-999.0,-999,-99.99,,,-99.99,,2013-05-16 13:55:00,
2013-05-16 06:05:00,20.0,-99.9,29.57,North,-999,-999.0,-999.0,-999,-99.99,,,-99.99,,2013-05-16 14:05:00,
2013-05-16 06:56:00,23.0,-99.9,29.57,North,-999,-999.0,-999.0,-999,-99.99,,,-99.99,,2013-05-16 14:56:00,
2013-05-16 07:08:00,24.0,-99.9,29.57,North,-999,-999.0,-999.0,-999,-99.99,,,-99.99,,2013-05-16 15:08:00,
2013-05-16 07:28:00,26.0,-99.9,29.57,North,-999,-999.0,-999.0,-999,-99.99,,,-99.99,,2013-05-16 15:28:00,
2013-05-16 07:41:00,27.0,-99.9,29.57,North,-999,-999.0,-999.0,-999,-99.99,,,-99.99,,2013-05-16 15:41:00,
2013-05-16 07:50:00,28.0,-99.9,29.56,North,-999,-999.0,-999.0,-999,-99.99,,,-99.99,,2013-05-16 15:50:00,
2013-05-16 08:01:00,28.0,-99.9,29.56,North,-999,-999.0,-999.0,-999,-99.99,,,-99.99,,2013-05-16 16:01:00,
2013-05-16 08:09:00,29.0,-99.9,29.56,North,-999,-999.0,-999.0,-999,-99.99,,,-99.99,,2013-05-16 16:09:00,
2013-05-16 08:20:00,29.0,-99.9,29.56,North,-999,-999.0,-999.0,-999,-99.99,,,-99.99,,2013-05-16 16:20:00,
2013-05-16 08:30:00,30.0,-99.9,29.56,North,-999,-999.0,-999.0,-999,-99.99,,,-99.99,,2013-05-16 16:30:00,
2013-05-16 08:40:00,30.0,-99.9,29.56,North,-999,-999.0,-999.0,-999,-99.99,,,-99.99,,2013-05-16 16:40:00,
2013-05-16 08:51:00,30.0,-99.9,29.56,North,-999,-999.0,-999.0,-999,-99.99,,,-99.99,,2013-05-16 16:51:00,
2013-05-16 09:01:00,35.0,-99.9,29.55,North,-999,-999.0,-999.0,-999,-99.99,,,-99.99,,2013-05-16 17:01:00,
2013-05-16 09:11:00,35.0,-99.9,29.55,North,-999,-999.0,-999.0,-999,-99.99,,,-99.99,,2013-05-16 17:11:00,
2013-05-16 09:20:00,35.0,-99.9,29.55,North,-999,-999.0,-999.0,-999,-99.99,,,-99.99,,2013-05-16 17:20:00,
2013-05-16 09:31:00,38.0,-99.9,29.55,North,-999,-999.0,-999.0,-999,-99.99,,,-99.99,,2013-05-16 17:31:00,
2013-05-16 09:40:00,39.0,-99.9,29.54,North,-999,-999.0,-999.0,-999,-99.99,,,-99.99,,2013-05-16 17:40:00,
2013-05-16 09:50:00,39.0,-99.9,29.54,North,-999,-999.0,-999.0,-999,-99.99,,,-99.99,,2013-05-16 17:50:00,
2013-05-16 10:00:00,39.0,-99.9,29.54,North,-999,-999.0,-999.0,-999,-99.99,,,-99.99,,2013-05-16 18:00:00,
2013-05-16 10:10:00,44.0,-99.9,29.54,North,-999,-999.0,-999.0,-999,-99.99,,,-99.99,,2013-05-16 18:10:00,
2013-05-16 10:20:00,44.0,-99.9,29.54,North,-999,-999.0,-999.0,-999,-99.99,,,-99.99,,2013-05-16 18:20:00,
2013-05-16 10:54:00,47.0,-99.9,29.51,North,-999,-999.0,-999.0,-999,-99.99,,,-99.99,,2013-05-16 18:54:00,
2013-05-16 11:11:00,46.0,-99.9,29.51,North,-999,-999.0,-999.0,-999,-99.99,,,-99.99,,2013-05-16 19:11:00,
2013-05-16 11:20:00,46.0,-99.9,29.51,North,-999,-999.0,-999.0,-999,-99.99,,,-99.99,,2013-05-16 19:20:00,
2013-05-16 11:30:00,47.0,-99.9,29.51,North,-999,-999.0,-999.0,-999,-99.99,,,-99.99,,2013-05-16 19:30:00,
2013-05-16 11:40:00,47.0,-99.9,29.51,North,-999,-999.0,-999.0,-999,-99.99,,,-99.99,,2013-05-16 19:40:00,
2013-05-16 11:51:00,47.0,-99.9,29.51,North,-999,-999.0,-999.0,-999,-99.99,,,-99.99,,2013-05-16 19:51:00,
2013-05-16 12:20:00,49.0,-99.9,29.48,North,-999,-999.0,-999.0,-999,-99.99,,,-99.99,,2013-05-16 20:20:00,
2013-05-16 12:30:00,49.0,-99.9,29.48,North,-999,-999.0,-999.0,-999,-99.99,,,-99.99,,2013-05-16 20:30:00,
2013-05-16 12:51:00,49.0,-99.9,29.46,North,-999,-999.0,-999.0,-999,-99.99,,,-99.99,,2013-05-16 20:51:00,
2013-05-16 13:00:00,49.0,-99.9,29.46,North,-999,-999.0,-999.0,-999,-99.99,,,-99.99,,2013-05-16 21:00:00,
2013-05-16 13:10:00,49.0,-99.9,29.46,North,-999,-999.0,-999.0,-999,-99.99,,,-99.99,,2013-05-16 21:10:00,
2013-05-16 13:20:00,49.0,-99.9,29.46,North,-999,-999.0,-999.0,-999,-99.99,,,-99.99,,2013-05-16 21:20:00,
2013-05-16 13:29:00,50.0,-99.9,29.45,North,-999,-999.0,-999.0,-999,-99.99,,,-99.99,,2013-05-16 21:29:00,
2013-05-16 13:39:00,49.0,-99.9,29.45,North,-999,-999.0,-999.0,-999,-99.99,,,-99.99,,2013-05-16 21:39:00,
2013-05-16 13:50:00,49.0,-99.9,29.45,North,-999,-999.0,-999.0,-999,-99.99,,,-99.99,,2013-05-16 21:50:00,
2013-05-16 14:08:00,51.0,-99.9,29.43,North,-999,-999.0,-999.0,-999,-99.99,,,-99.99,,2013-05-16 22:08:00,
2013-05-16 14:21:00,51.0,-99.9,29.43,North,-999,-999.0,-999.0,-999,-99.99,,,-99.99,,2013-05-16 22:21:00,
2013-05-16 14:31:00,51.0,-99.9,29.43,North,-999,-999.0,-999.0,-999,-99.99,,,-99.99,,2013-05-16 22:31:00,
2013-05-16 14:40:00,51.0,-99.9,29.43,North,-999,-999.0,-999.0,-999,-99.99,,,-99.99,,2013-05-16 22:40:00,
2013-05-16 14:51:00,51.0,-99.9,29.43,North,-999,-999.0,-999.0,-999,-99.99,,,-99.99,,2013-05-16 22:51:00,
2013-05-16 15:01:00,52.0,-99.9,29.42,North,-999,-999.0,-999.0,-999,-99.99,,,-99.99,,2013-05-16 23:01:00,
2013-05-16 15:07:00,52.0,-99.9,29.41,North,-999,-999.0,-999.0,-999,-99.99,,,-99.99,,2013-05-16 23:07:00,
2013-05-16 15:16:00,51.0,-99.9,29.41,North,-999,-999.0,-999.0,-999,-99.99,,,-99.99,,2013-05-16 23:16:00,
2013-05-16 15:24:00,51.0,-99.9,29.41,North,-999,-999.0,-999.0,-999,-99.99,,,-99.99,,2013-05-16 23:24:00,
2013-05-16 15:35:00,51.0,-99.9,29.41,North,-999,-999.0,-999.0,-999,-99.99,,,-99.99,,2013-05-16 23:35:00,
2013-05-16 15:45:00,51.0,-99.9,29.41,North,-999,-999.0,-999.0,-999,-99.99,,,-99.99,,2013-05-16 23:45:00,
2013-05-16 15:54:00,51.0,-99.9,29.41,North,-999,-999.0,-999.0,-999,-99.99,,,-99.99,,2013-05-16 23:54:00,
2013-05-16 16:03:00,50.0,-99.9,29.41,North,-999,-999.0,-999.0,-999,-99.99,,,-99.99,,2013-05-17 00:03:00,
2013-05-16 16:13:00,50.0,-99.9,29.41,North,-999,-999.0,-999.0,-999,-99.99,,,-99.99,,2013-05-17 00:13:00,
2013-05-16 16:22:00,49.0,-99.9,29.41,North,-999,-999.0,-999.0,-999,-99.99,,,-99.99,,2013-05-17 00:22:00,
2013-05-16 16:33:00,49.0,-99.9,29.41,North,-999,-999.0,-999.0,-999,-99.99,,,-99.99,,2013-05-17 00:33:00,
2013-05-16 16:44:00,49.0,-99.9,29.41,North,-999,-999.0,-999.0,-999,-99.99,,,-99.99,,2013-05-17 00:44:00,
2013-05-16 16:53:00,49.0,-99.9,29.41,North,-999,-999.0,-999.0,-999,-99.99,,,-99.99,,2013-05-17 00:53:00,
2013-05-16 17:03:00,49.0,-99.9,29.40,North,-999,-999.0,-999.0,-999,-99.99,,,-99.99,,2013-05-17 01:03:00,
2013-05-16 17:12:00,49.0,-99.9,29.40,North,-999,-999.0,-999.0,-999,-99.99,,,-99.99,,2013-05-17 01:12:00,
2013-05-16 17:23:00,49.0,-99.9,29.40,North,-999,-999.0,-999.0,-999,-99.99,,,-99.99,,2013-05-17 01:23:00,
2013-05-16 17:32:00,49.0,-99.9,29.40,North,-999,-999.0,-999.0,-999,-99.99,,,-99.99,,2013-05-17 01:32:00,
2013-05-16 17:53:00,48.0,-99.9,29.39,North,-999,-999.0,-999.0,-999,-99.99,,,-99.99,,2013-05-17 01:53:00,
2013-05-16 18:02:00,48.0,-99.9,29.38,North,-999,-999.0,-999.0,-999,-99.99,,,-99.99,,2013-05-17 02:02:00,
2013-05-16 18:12:00,48.0,-99.9,29.38,North,-999,-999.0,-999.0,-999,-99.99,,,-99.99,,2013-05-17 02:12:00,
2013-05-16 18:22:00,48.0,-99.9,29.37,North,-999,-999.0,-999.0,-999,-99.99,,,-99.99,,2013-05-17 02:22:00,
2013-05-16 18:33:00,47.0,-99.9,29.37,North,-999,-999.0,-999.0,-999,-99.99,,,-99.99,,2013-05-17 02:33:00,
2013-05-16 18:42:00,47.0,-99.9,29.37,North,-999,-999.0,-999.0,-999,-99.99,,,-99.99,,2013-05-17 02:42:00,
2013-05-16 18:53:00,47.0,-99.9,29.36,North,-999,-999.0,-999.0,-999,-99.99,,,-99.99,,2013-05-17 02:53:00,
2013-05-16 19:02:00,47.0,-99.9,29.36,North,-999,-999.0,-999.0,-999,-99.99,,,-99.99,,2013-05-17 03:02:00,
2013-05-16 19:11:00,47.0,-99.9,29.36,North,-999,-999.0,-999.0,-999,-99.99,,,-99.99,,2013-05-17 03:11:00,
2013-05-16 19:23:00,47.0,-99.9,29.36,North,-999,-999.0,-999.0,-999,-99.99,,,-99.99,,2013-05-17 03:23:00,
2013-05-16 19:34:00,47.0,-99.9,29.36,North,-999,-999.0,-999.0,-999,-99.99,,,-99.99,,2013-05-17 03:34:00,
2013-05-16 19:43:00,47.0,-99.9,29.36,North,-999,-999.0,-999.0,-999,-99.99,,,-99.99,,2013-05-17 03:43:00,
2013-05-16 19:53:00,47.0,-99.9,29.36,North,-999,-999.0,-999.0,-999,-99.99,,,-99.99,,2013-05-17 03:53:00,
2013-05-16 20:03:00,46.0,-99.9,29.35,North,-999,-999.0,-999.0,-999,-99.99,,,-99.99,,2013-05-17 04:03:00,
2013-05-16 20:13:00,46.0,-99.9,29.35,North,-999,-999.0,-999.0,-999,-99.99,,,-99.99,,2013-05-17 04:13:00,
2013-05-16 20:14:00,46.0,-99.9,29.35,North,-999,-999.0,-999.0,-999,-99.99,,,-99.99,,2013-05-17 04:14:00,
2013-05-16 20:23:00,47.0,-99.9,29.35,North,-999,-999.0,-999.0,-999,-99.99,,,-99.99,,2013-05-17 04:23:00,
2013-05-16 20:34:00,46.0,-99.9,29.35,North,-999,-999.0,-999.0,-999,-99.99,,,-99.99,,2013-05-17 04:34:00,
2013-05-16 20:43:00,46.0,-99.9,29.35,North,-999,-999.0,-999.0,-999,-99.99,,,-99.99,,2013-05-17 04:43:00,
2013-05-16 20:53:00,46.0,-99.9,29.35,North,-999,-999.0,-999.0,-999,-99.99,,,-99.99,,2013-05-17 04:53:00,
2013-05-16 21:03:00,46.0,-99.9,29.35,North,-999,-999.0,-999.0,-999,-99.99,,,-99.99,,2013-05-17 05:03:00,
2013-05-16 21:22:00,44.0,-99.9,29.35,North,-999,-999.0,-999.0,-999,-99.99,,,-99.99,,2013-05-17 05:22:00,
2013-05-16 21:32:00,44.0,-99.9,29.35,North,-999,-999.0,-999.0,-999,-99.99,,,-99.99,,2013-05-17 05:32:00,
2013-05-16 21:43:00,44.0,-99.9,29.35,North,-999,-999.0,-999.0,-999,-99.99,,,-99.99,,2013-05-17 05:43:00,
2013-05-16 21:52:00,43.0,-99.9,29.35,North,-999,-999.0,-999.0,-999,-99.99,,,-99.99,,2013-05-17 05:52:00,
2013-05-16 22:02:00,43.0,-99.9,29.34,North,-999,-999.0,-999.0,-999,-99.99,,,-99.99,,2013-05-17 06:02:00,
2013-05-16 22:11:00,43.0,-99.9,29.34,North,-999,-999.0,-999.0,-999,-99.99,,,-99.99,,2013-05-17 06:11:00,
2013-05-16 22:22:00,42.0,-99.9,29.34,North,-999,-999.0,-999.0,-999,-99.99,,,-99.99,,2013-05-17 06:22:00,
2013-05-16 22:32:00,42.0,-99.9,29.34,North,-999,-999.0,-999.0,-999,-99.99,,,-99.99,,2013-05-17 06:32:00,
2013-05-16 22:42:00,42.0,-99.9,29.34,North,-999,-999.0,-999.0,-999,-99.99,,,-99.99,,2013-05-17 06:42:00,
2013-05-16 22:52:00,40.0,-99.9,29.34,North,-999,-999.0,-999.0,-999,-99.99,,,-99.99,,2013-05-17 06:52:00,
2013-05-16 23:03:00,40.0,-99.9,29.34,North,-999,-999.0,-999.0,-999,-99.99,,,-99.99,,2013-05-17 07:03:00,
2013-05-16 23:11:00,40.0,-99.9,29.34,North,-999,-999.0,-999.0,-999,-99.99,,,-99.99,,2013-05-17 07:11:00,
2013-05-16 23:21:00,39.0,-99.9,29.33,North,-999,-999.0,-999.0,-999,-99.99,,,-99.99,,2013-05-17 07:21:00,
2013-05-16 23:32:00,38.0,-99.9,29.33,North,-999,-999.0,-999.0,-999,-99.99,,,-99.99,,2013-05-17 07:32:00,
2013-05-16 23:43:00,38.0,-99.9,29.33,North,-999,-999.0,-999.0,-999,-99.99,,,-99.99,,2013-05-17 07:43:00,
2013-05-16 23:53:00,38.0,-99.9,29.32,North,-999,-999.0,-999.0,-999,-99.99,,,-99.99,,2013-05-17 07:53:00,